Flag for Saudi Arabia Weather past 2 weeks in Riyadh, Saudi Arabia

Now
99 °F

Clear.


Feels Like: 93 °F
Forecast: 85 / 109 °F
Wind: 8 mph from Northwest

Location: King Khaled International Airport

Current Time: Jul 30, 2014 at 8:32:26 PM

Latest Report: Jul 30, 2014 at 8:00 PM


Visibility: 10 mi

Pressure: 29.65 "Hg

Humidity: 10%

Dew point: 32 °F

Location of RiyadhLocation

Historic Weather in Riyadh — Graph

°F

Riyadh temperature yesterday

Maximum temperature yesterday: 108 °F (at 3:00 PM)
Minimum temperature yesterday: 84 °F (at 6:00 AM)
Average temperature yesterday: 96 °F

Past Weeks' High & Low Weather Summary

 TemperatureHumidityPressure
High111 °F (Jul 18, 3:00 PM)20% (Jul 23, 6:00 AM)29.86 "Hg (Jul 23, 6:00 AM)
Low81 °F (Jul 16, 6:00 AM)5% (Jul 19, 12:00 PM)29.59 "Hg (Jul 18, 4:00 PM)
Average97 °F11%29.70 "Hg
* Reported Jul 15 7:00 PM — Jul 30 7:00 PM, Riyadh, Weather by CustomWeather, © 2014

Note: Actual official high and low records may vary slightly from our data, if they occured in-between our weather recording intervals... More about our weather records

Advertising

Riyadh weather history for previous 24 hours

 ConditionsComfort  
Time TempWeatherWind HumidityBarometerVisibility
7:00 PM
Jul 30
100 °FClear.10 mph9%29.65 "Hg10 mi
6:00 PM104 °FSunny.15 mph8%29.62 "Hg10 mi
5:00 PM106 °FSunny.14 mph8%29.62 "Hg10 mi
4:00 PM108 °FSunny.14 mph7%29.62 "Hg6 mi
3:00 PM109 °FSunny.15 mph5%29.65 "Hg3 mi
2:00 PM108 °FSunny.16 mph7%29.65 "Hg3 mi
1:00 PM106 °FSunny.17 mph8%29.65 "Hg4 mi
12:00 PM104 °FSunny.14 mph9%29.68 "Hg4 mi
11:00 AM104 °FSunny.15 mph9%29.68 "Hg4 mi
10:00 AM102 °FSunny.12 mph10%29.71 "Hg4 mi
9:00 AM99 °FSunny.12 mph12%29.71 "Hg4 mi
8:00 AM93 °FSunny.12 mph14%29.71 "Hg4 mi
7:00 AM86 °FSunny.7 mph15%29.68 "Hg4 mi
6:00 AM82 °FSunny.6 mph19%29.68 "Hg4 mi
5:00 AM84 °FClear.5 mph18%29.68 "Hg10 mi
4:00 AM84 °FClear.7 mph18%29.65 "Hg10 mi
3:00 AM86 °FClear.5 mph17%29.65 "Hg10 mi
2:00 AM88 °FClear.7 mph15%29.65 "Hg10 mi
1:00 AM88 °FClear.6 mph15%29.65 "Hg10 mi
12:00 AM90 °FClear.5 mph15%29.68 "Hg10 mi
11:00 PM
Jul 29
91 °FClear.5 mph14%29.68 "Hg6 mi
10:00 PM95 °FClear.7 mph13%29.68 "Hg5 mi
9:00 PM97 °FClear.9 mph12%29.68 "Hg4 mi
8:00 PM99 °FClear.12 mph11%29.65 "Hg4 mi
Weather by CustomWeather, © 2014

See weather overviewHow to use our weather pages